When you browse on this site, cookies collect data to enhance your experience and personalize the content and advertising you see.
Visit our Privacy Policy to learn more. By continuing to use the site, you agree to this use of cookies and data.
  • In Switzerland
  • List of Countries
  • For 7 days
  • Water Temperature
  • Satellite Maps
  • Weather Map
  • Weather Widgets
  • user-avatar
    Login

    Hourly Weather Gifhorn

    Today, 26 May, Sunday

    Time Temperature Precipitation Wind Pressure Humidity
    00:00 +10°C° 0 mm 1 mps 757 mmHg 89%
    01:00 +9°C° 0 mm 1 mps 757 mmHg 94%
    02:00 +9°C° 0 mm 1 mps 757 mmHg 94%
    03:00 +8°C° 0 mm 2 mps 756 mmHg 95%
    04:00 +8°C° 0 mm 2 mps 756 mmHg 95%
    05:00 +9°C° 0 mm 3 mps 756 mmHg 90%
    06:00 +11°C° 0 mm 4 mps 755 mmHg 85%
    07:00 +13°C° 0 mm 5 mps 755 mmHg 78%
    08:00 +14°C° 0 mm 5 mps 755 mmHg 73%
    09:00 +16°C° 0 mm 6 mps 754 mmHg 68%
    10:00 +17°C° 0 mm 6 mps 754 mmHg 63%
    11:00 +19°C° 0 mm 6 mps 754 mmHg 62%
    12:00 +20°C° 0 mm 6 mps 753 mmHg 60%
    13:00 +20°C° 0 mm 5 mps 753 mmHg 64%
    14:00 +20°C° 0.1 mm 5 mps 753 mmHg 64%
    15:00 +21°C° 0.1 mm 6 mps 752 mmHg 64%
    16:00 +21°C° 0.1 mm 6 mps 752 mmHg 65%
    17:00 +20°C° 0 mm 5 mps 752 mmHg 69%
    18:00 +19°C° 0 mm 5 mps 752 mmHg 72%
    19:00 +19°C° 0 mm 4 mps 751 mmHg 76%
    20:00 +18°C° 0 mm 4 mps 751 mmHg 79%
    21:00 +17°C° 0 mm 4 mps 751 mmHg 81%
    22:00 +15°C° 0 mm 4 mps 751 mmHg 84%
    23:00 +15°C° 0 mm 4 mps 751 mmHg 83%

    Tomorrow, 27 May, Monday

    Time Temperature Precipitation Wind Pressure Humidity
    00:00 +15°C° 0 mm 5 mps 751 mmHg 82%
    01:00 +14°C° 0 mm 5 mps 751 mmHg 82%
    02:00 +14°C° 0.1 mm 5 mps 750 mmHg 84%
    03:00 +14°C° 0.1 mm 5 mps 750 mmHg 86%
    04:00 +14°C° 0.1 mm 5 mps 750 mmHg 88%
    05:00 +13°C° 0.3 mm 4 mps 750 mmHg 90%
    06:00 +13°C° 0.3 mm 4 mps 750 mmHg 92%
    07:00 +13°C° 0.3 mm 4 mps 750 mmHg 94%
    08:00 +14°C° 0.1 mm 4 mps 750 mmHg 91%
    09:00 +15°C° 0.1 mm 4 mps 751 mmHg 87%
    10:00 +15°C° 0.1 mm 4 mps 751 mmHg 84%
    11:00 +17°C° 0 mm 4 mps 751 mmHg 78%
    12:00 +18°C° 0 mm 4 mps 751 mmHg 72%
    13:00 +19°C° 0 mm 4 mps 751 mmHg 66%
    14:00 +19°C° 0 mm 4 mps 750 mmHg 64%
    15:00 +19°C° 0 mm 4 mps 750 mmHg 62%
    16:00 +19°C° 0 mm 4 mps 750 mmHg 60%
    17:00 +19°C° 0.1 mm 4 mps 750 mmHg 64%
    18:00 +18°C° 0.1 mm 3 mps 750 mmHg 68%
    19:00 +17°C° 0.1 mm 3 mps 750 mmHg 72%
    20:00 +16°C° 0 mm 2 mps 750 mmHg 75%
    21:00 +14°C° 0 mm 2 mps 750 mmHg 77%
    22:00 +13°C° 0 mm 2 mps 751 mmHg 80%
    23:00 +12°C° 0 mm 2 mps 751 mmHg 83%

    Day after tomorrow, 28 May, Tuesday

    Time Temperature Precipitation Wind Pressure Humidity
    00:00 +12°C° 0 mm 2 mps 750 mmHg 86%
    01:00 +10°C° 0 mm 2 mps 750 mmHg 89%
    02:00 +10°C° 0 mm 1 mps 750 mmHg 91%
    03:00 +9°C° 0 mm 1 mps 750 mmHg 92%
    04:00 +8°C° 0 mm 0 mps 750 mmHg 94%
    05:00 +9°C° 0 mm 0 mps 750 mmHg 88%
    06:00 +10°C° 0 mm 0 mps 750 mmHg 82%
    07:00 +13°C° 0 mm 1 mps 751 mmHg 77%
    08:00 +13°C° 0 mm 1 mps 751 mmHg 73%
    09:00 +14°C° 0 mm 1 mps 751 mmHg 69%
    10:00 +15°C° 0 mm 2 mps 751 mmHg 65%
    11:00 +15°C° 0.2 mm 2 mps 751 mmHg 66%
    12:00 +16°C° 0.2 mm 2 mps 751 mmHg 67%
    13:00 +16°C° 0.2 mm 3 mps 751 mmHg 68%
    14:00 +16°C° 0.1 mm 3 mps 751 mmHg 65%
    15:00 +17°C° 0.1 mm 3 mps 751 mmHg 63%
    16:00 +17°C° 0.1 mm 3 mps 751 mmHg 61%
    17:00 +16°C° 0.1 mm 3 mps 752 mmHg 64%
    18:00 +14°C° 0.1 mm 3 mps 752 mmHg 68%
    19:00 +15°C° 0.1 mm 2 mps 753 mmHg 72%
    20:00 +13°C° 0 mm 2 mps 754 mmHg 74%
    21:00 +12°C° 0 mm 2 mps 754 mmHg 76%
    22:00 +10°C° 0 mm 2 mps 755 mmHg 79%
    23:00 +9°C° 0 mm 2 mps 755 mmHg 81%

    29 May, Wednesday

    Time Temperature Precipitation Wind Pressure Humidity
    00:00 +8°C° 0 mm 2 mps 756 mmHg 83%
    01:00 +7°C° 0 mm 2 mps 756 mmHg 86%
    02:00 +7°C° 0 mm 2 mps 756 mmHg 85%
    03:00 +6°C° 0 mm 2 mps 757 mmHg 85%
    04:00 +6°C° 0 mm 2 mps 757 mmHg 85%
    05:00 +7°C° 0 mm 2 mps 757 mmHg 80%
    06:00 +8°C° 0 mm 2 mps 758 mmHg 74%
    07:00 +9°C° 0 mm 2 mps 758 mmHg 69%
    08:00 +12°C° 0 mm 1 mps 758 mmHg 63%
    09:00 +14°C° 0 mm 1 mps 759 mmHg 58%
    10:00 +16°C° 0 mm 1 mps 759 mmHg 52%
    11:00 +16°C° 0 mm 1 mps 759 mmHg 50%
    12:00 +18°C° 0 mm 1 mps 759 mmHg 48%
    13:00 +19°C° 0 mm 1 mps 759 mmHg 45%
    14:00 +19°C° 0 mm 1 mps 758 mmHg 46%
    15:00 +18°C° 0 mm 2 mps 758 mmHg 48%
    16:00 +18°C° 0 mm 2 mps 758 mmHg 49%
    17:00 +17°C° 0 mm 2 mps 758 mmHg 56%
    18:00 +17°C° 0 mm 2 mps 757 mmHg 62%
    19:00 +16°C° 0 mm 2 mps 757 mmHg 69%
    20:00 +14°C° 0 mm 3 mps 757 mmHg 72%
    21:00 +13°C° 0 mm 3 mps 757 mmHg 75%
    22:00 +12°C° 0 mm 3 mps 758 mmHg 77%
    23:00 +12°C° 0 mm 3 mps 757 mmHg 78%

    30 May, Thursday

    Time Temperature Precipitation Wind Pressure Humidity
    00:00 +12°C° 0 mm 4 mps 757 mmHg 78%
    01:00 +11°C° 0 mm 4 mps 757 mmHg 79%
    02:00 +11°C° 0 mm 4 mps 757 mmHg 79%
    03:00 +11°C° 0 mm 3 mps 756 mmHg 80%
    04:00 +12°C° 0 mm 3 mps 756 mmHg 80%
    05:00 +12°C° 0 mm 3 mps 756 mmHg 81%
    06:00 +12°C° 0 mm 4 mps 756 mmHg 81%
    07:00 +13°C° 0 mm 4 mps 756 mmHg 82%
    08:00 +13°C° 0 mm 4 mps 756 mmHg 82%
    09:00 +14°C° 0 mm 4 mps 756 mmHg 83%
    10:00 +15°C° 0 mm 4 mps 756 mmHg 83%
    11:00 +17°C° 0.2 mm 4 mps 756 mmHg 79%
    12:00 +18°C° 0.2 mm 4 mps 756 mmHg 74%
    13:00 +19°C° 0.2 mm 4 mps 756 mmHg 70%
    14:00 +19°C° 0.1 mm 4 mps 756 mmHg 67%
    15:00 +20°C° 0.1 mm 4 mps 756 mmHg 64%
    16:00 +20°C° 0.1 mm 4 mps 756 mmHg 60%
    17:00 +20°C° 0 mm 3 mps 756 mmHg 64%
    18:00 +19°C° 0 mm 2 mps 756 mmHg 68%
    19:00 +20°C° 0 mm 1 mps 756 mmHg 73%
    20:00 +18°C° 0.2 mm 2 mps 755 mmHg 79%
    21:00 +16°C° 0.2 mm 3 mps 755 mmHg 86%
    22:00 +14°C° 0.2 mm 4 mps 755 mmHg 93%
    23:00 +14°C° 0.2 mm 4 mps 755 mmHg 94%

    31 May, Friday

    Time Temperature Precipitation Wind Pressure Humidity
    00:00 +14°C° 0.2 mm 4 mps 754 mmHg 95%
    01:00 +14°C° 0.2 mm 4 mps 754 mmHg 96%
    02:00 +13°C° 1.8 mm 5 mps 754 mmHg 95%
    03:00 +11°C° 1.8 mm 6 mps 755 mmHg 94%
    04:00 +10°C° 1.8 mm 7 mps 755 mmHg 93%
    05:00 +9°C° 0.2 mm 7 mps 757 mmHg 90%
    06:00 +8°C° 0.2 mm 7 mps 758 mmHg 87%
    07:00 +7°C° 0.2 mm 6 mps 760 mmHg 84%
    08:00 +9°C° 0 mm 6 mps 761 mmHg 71%
    09:00 +10°C° 0 mm 6 mps 762 mmHg 58%
    10:00 +13°C° 0 mm 6 mps 763 mmHg 46%
    11:00 +14°C° 0 mm 6 mps 763 mmHg 45%
    12:00 +14°C° 0 mm 6 mps 763 mmHg 44%
    13:00 +15°C° 0 mm 6 mps 764 mmHg 44%
    14:00 +15°C° 0 mm 6 mps 764 mmHg 45%
    15:00 +15°C° 0 mm 6 mps 765 mmHg 46%
    16:00 +15°C° 0 mm 6 mps 765 mmHg 47%
    17:00 +14°C° 0 mm 5 mps 765 mmHg 53%
    18:00 +13°C° 0 mm 5 mps 766 mmHg 58%
    19:00 +12°C° 0 mm 4 mps 766 mmHg 64%
    20:00 +11°C° 0 mm 4 mps 766 mmHg 68%
    21:00 +9°C° 0 mm 3 mps 767 mmHg 72%
    22:00 +7°C° 0 mm 3 mps 767 mmHg 76%
    23:00 +7°C° 0 mm 3 mps 767 mmHg 81%
    Show more